Regional Weather Roundup
Issued by NWS

Home | Current Version | Previous Version | Graphics & Text | Print | Product List | Glossary On
Versions: 1 2 3 4 5 6 7 8 9 10 11 12 13 14 15 16 17 18 19 20 21 22 23 24 25 26 27 28 29 30 31 32 33 34 35 36 37 38 39 40 41 42 43 44 45 46 47 48 49 50
000
ASUS43 KBIS 030210
RWRND

NORTH DAKOTA REGIONAL WEATHER ROUNDUP
NATIONAL WEATHER SERVICE BISMARCK ND
900 PM CDT SUN AUG 02 2015

NOTE: "FAIR" INDICATES FEW OR NO CLOUDS BELOW 12,000 FEET WITH NO
SIGNIFICANT WEATHER AND/OR OBSTRUCTIONS TO VISIBILITY.


NDZ001>003-009>011-017-030300-
NORTHWEST NORTH DAKOTA

CITY           SKY/WX    TMP DP  RH WIND       PRES   REMARKS
WILLISTON      CLEAR     75  46  35 N9        29.98R
MINOT          CLEAR     70  48  45 NW10      29.92S
MINOT AFB      CLEAR     72  52  49 NW8       29.92R
$$

NDZ018>021-031>035-040>046-030300-
SOUTHWEST NORTH DAKOTA

CITY           SKY/WX    TMP DP  RH WIND       PRES   REMARKS
BISMARCK       CLEAR     74  51  44 N8        29.94S
DICKINSON      CLEAR     70  49  47 N6        29.98R
GARRISON         N/A     68  57  68 NW3       29.94S
HETTINGER ARPT CLEAR     72  49  44 NE10      30.00R
$$

NDZ004>008-012>016-024-026-027-054-030300-
NORTHEAST NORTH DAKOTA

CITY           SKY/WX    TMP DP  RH WIND       PRES   REMARKS
GRAND FORKS    PTCLDY    66  50  56 NW7       29.82R
GRND FRKS AFB  CLEAR     67  49  53 NW8       29.84R
DEVILS LAKE    CLEAR     66  48  52 NW8       29.88R
$$

NDZ022-023-025-028>030-036>039-047>053-030300-
SOUTHEAST NORTH DAKOTA

CITY           SKY/WX    TMP DP  RH WIND       PRES   REMARKS
FARGO          CLEAR     68  52  56 W6        29.84S
JAMESTOWN      CLEAR     66  54  65 NW7       29.89S
$$




USA.gov is the U.S. government's official web portal to all federal, state and local government web resources and services.